COSMOS 1749

导读

COSMOS 1749(宇宙1749)是独联体(CIS)继承自苏联航天体系后,于1986年6月6日09:00发射的人造卫星,属于苏联“宇宙”系列卫星家族。该系列卫星承担军事侦察、空间技术试验等多种任务,这颗卫星入轨后按计划完成预设任务,为独联体早期航天应用积累了轨道运行与空间探测的重要数据,是冷战末期独联体航天活动的重要组成部分。

基本信息
目录编号:
16759
目录名称:
COSMOS 1749
国际标识:
1986-042B
轨道中心:
EARTH
卫星名称:
COSMOS 1749
卫星全名:
--
卫星状态:
在轨 (已飞行14710 天)
发射日期:
1986-06-06 UTC
国别 :
俄罗斯(独联体) (CIS)
星等 :
--
该卫星已列入 空间交会检测服务 Space Conjunction Data Service (SCDS) ,当前飞行风险评估等级: 无高风险
轨道信息
数据来源 国际轨道数据 AOE轨道数据
星历时间 2026-09-14T02:56:37+0800
12小时前
查看轨道信息
2026-09-13T00:00:00+0800
1天前
查看轨道信息
半长轴 7808.892km 7808.889km
偏心率 0.0048584 0.004857
轨道倾角 74.015° 74.014°
近地点辐角 351.974° 353.836°
升交点赤经 266.862° 268.378°
平近点角 181.073° 136.222°
近地点 1392.816km 1392.824km
远地点 1468.694km 1468.68km
周期 114.457分钟 114.457分钟
每日圈数 12.581103 12.58111
详细信息
使用方式:
暂无
2D轨道图
3D轨道图
轨道高度分析图
轨道倾角分析图
轨道综合分析图
查看轨道综合分析图
交会数据列表
事件ID 空间交会对象 最接近时刻(TCA) 交会距离 交会风险概率(CRP) 交会风险指数(CRI) 操作
CDM_260910-092601-675901-853927
2026-09-10T
09:26:38+0000
2.490 km
极远距离
1.525537E-6 低风险 0.39
与全量物体交会距离演化趋势 订阅飞行安全评估服务
与全量物体交会风险概率演化趋势 订阅飞行安全评估服务